Weather History for KMUO - December, 2012

Change the Weather History Date:

Friday, December 7, 2012

  Actual Average Record
Temperature  
Mean Temperature 32 °F 31 °F  
Max Temperature 44 °F 39 °F 61 °F (1939)
Min Temperature 20 °F 22 °F 2 °F (2005)
Degree Days  
Heating Degree Days 33 34  
Month to date heating degree days 140 233  
Cooling Degree Days 0 0  
Month to date cooling degree days 0 0  
Moisture  
Dew Point 27 °F    
Average Humidity 82    
Maximum Humidity 100    
Minimum Humidity 42    
Precipitation  
Precipitation 0.00 in 0.06 in 0.68 in (1983)
Month to date precipitation 0.20 0.42  
Sea Level Pressure  
Sea Level Pressure 30.13 in    
Wind  
Wind Speed 4 mph (NNW)    
Max Wind Speed 12 mph    
Max Gust Speed -    
Visibility 10 miles    
Events      
T = Trace of Precipitation, MM = Missing Value Source: NWS Daily Summary

Daily Weather History Graph

Daily Weather History Graph

Search for Another Location

Airport or City:

Trip Planner

Search our weather history database for the weather conditions in past years. The results will help you decide how hot, cold, wet, or windy it might be!

Date:

Astronomy

Dec. 07, 2012 Rise Set
Actual Time 8:01 AM MST 5:08 PM MST
Civil Twilight 7:29 AM MST 5:40 PM MST
Nautical Twilight 6:54 AM MST 6:16 PM MST
Astronomical Twilight 6:19 AM MST 6:50 PM MST
Moon 1:17 AM MST (12/7) 1:15 PM MST (12/7)
Length of Visible Light 10h 11m
Length of Day
9h 06m
Last Quarter, 38% of the Moon is Illuminated
Dec 7
Last Quarter
Dec 13
New
Dec 19
First Quarter
Dec 28
Full
Jan 4
Last Quarter

Hourly Weather History & Observations

Time (MST) Temp. Windchill Dew Point Humidity Pressure Visibility Wind Dir Wind Speed Gust Speed Precip Events Conditions
12:58 AM 30.4 °F 24.5 °F 30.4 °F 100% 30.17 in 10.0 mi NNW 5.8 mph - N/A   Clear
1:58 AM 25.0 °F 20.7 °F 25.0 °F 100% 30.19 in 10.0 mi West 3.5 mph - N/A   Clear
2:58 AM 26.8 °F 18.5 °F 26.8 °F 100% 30.19 in 10.0 mi West 8.1 mph - N/A   Clear
3:58 AM 26.2 °F 20.7 °F 26.2 °F 100% 30.19 in 10.0 mi WNW 4.6 mph - N/A   Clear
4:58 AM 27.0 °F 21.6 °F 27.0 °F 100% 30.19 in 10.0 mi NW 4.6 mph - N/A   Clear
5:58 AM 26.1 °F - 26.1 °F 100% 30.20 in 10.0 mi Calm Calm - N/A   Clear
6:58 AM 23.7 °F - 23.7 °F 100% 30.21 in 10.0 mi NNW 1.2 mph - N/A   Clear
7:58 AM 20.7 °F - 20.7 °F 100% 30.22 in 10.0 mi Calm Calm - N/A   Clear
8:58 AM 23.7 °F - 23.7 °F 100% 30.22 in 10.0 mi ENE 1.2 mph - N/A   Clear
9:58 AM 29.3 °F - 29.3 °F 100% 30.21 in 10.0 mi ESE 2.3 mph - N/A   Mostly Cloudy
10:58 AM 36.9 °F 32.2 °F 35.6 °F 95% 30.19 in 10.0 mi South 5.8 mph - N/A   Clear
11:58 AM 37.9 °F - 28.9 °F 70% 30.18 in 10.0 mi East 2.3 mph - N/A   Scattered Clouds
12:58 PM 42.1 °F - 23.9 °F 49% 30.13 in 10.0 mi Variable 1.2 mph - N/A   Clear
1:58 PM 42.8 °F 39.3 °F 21.9 °F 44% 30.11 in 10.0 mi NNW 5.8 mph - N/A   Clear
2:58 PM 43.9 °F 40.5 °F 22.3 °F 42% 30.08 in 10.0 mi NNE 5.8 mph - N/A   Clear
3:58 PM 43.5 °F 39.4 °F 24.3 °F 47% 30.07 in 10.0 mi NNW 6.9 mph - N/A   Mostly Cloudy
4:58 PM 41.4 °F 39.4 °F 25.3 °F 53% 30.07 in 10.0 mi NNE 3.5 mph - N/A   Clear
5:58 PM 36.7 °F 34.1 °F 27.9 °F 70% 30.06 in 10.0 mi NE 3.5 mph - N/A   Clear
6:58 PM 35.8 °F - 29.1 °F 77% 30.07 in 10.0 mi North 1.2 mph - N/A   Overcast
7:58 PM 36.0 °F - 29.5 °F 77% 30.07 in 10.0 mi Calm Calm - N/A   Overcast
8:58 PM 34.0 °F - 31.1 °F 89% 30.07 in 10.0 mi Calm Calm - N/A   Overcast
9:58 PM 32.7 °F - 32.4 °F 99% 30.04 in 10.0 mi Calm Calm - N/A   Overcast
10:58 PM 33.3 °F 27.9 °F 33.3 °F 100% 30.02 in 10.0 mi WSW 5.8 mph - N/A   Overcast
11:58 PM 37.9 °F 30.5 °F 27.1 °F 65% 30.01 in 10.0 mi WNW 11.5 mph - N/A   Overcast